| time (UTC) | temp F | wind direction | speed knots | gust knots | rain 1hr in | rain 24hr in | rain mn in | humidity % | barometer mb |
| 20260506003045 | 72 | 193 | 1.7 | 4.3 | 0.00 | 0.00 | 0.00 | 59 | 1016.0 |
| 20260506001529 | 73 | 248 | 2.6 | 7.8 | 0.00 | 0.00 | 0.00 | 59 | 1015.8 |
| 20260506000032 | 74 | 250 | 2.6 | 7.8 | 0.00 | 0.00 | 0.00 | 58 | 1015.6 |
| 20260505234556 | 74 | 263 | 0.9 | 8.7 | 0.00 | 0.00 | 0.00 | 57 | 1015.5 |
| 20260505233020 | 75 | 211 | 2.6 | 8.7 | 0.00 | 0.00 | 0.00 | 57 | 1015.4 |
| 20260505231553 | 76 | 360 | 0.9 | 7.0 | 0.00 | 0.00 | 0.00 | 55 | 1015.2 |
| 20260505230054 | 77 | 169 | 1.7 | 7.0 | 0.00 | 0.00 | 0.00 | 54 | 1015.3 |
| 20260505224559 | 77 | 200 | 3.5 | 10.4 | 0.00 | 0.00 | 0.00 | 54 | 1015.4 |
| 20260505223049 | 78 | 190 | 2.6 | 16.5 | 0.00 | 0.00 | 0.00 | 53 | 1015.5 |
| 20260505221601 | 79 | 242 | 3.5 | 8.7 | 0.00 | 0.00 | 0.00 | 52 | 1015.7 |
| 20260505220107 | 79 | 238 | 4.3 | 12.2 | 0.00 | 0.00 | 0.00 | 51 | 1015.6 |
| 20260505214512 | 79 | 130 | 1.7 | 13.9 | 0.00 | 0.00 | 0.00 | 51 | 1015.6 |
| 20260505213018 | 80 | 168 | 1.7 | 9.6 | 0.00 | 0.00 | 0.00 | 51 | 1015.5 |
| 20260505211524 | 80 | 315 | 1.7 | 9.6 | 0.00 | 0.00 | 0.00 | 52 | 1015.6 |
| 20260505210058 | 79 | 259 | 7.0 | 13.9 | 0.00 | 0.00 | 0.00 | 52 | 1016.0 |
| 20260505204540 | 79 | 311 | 4.3 | 10.4 | 0.00 | 0.00 | 0.00 | 51 | 1015.9 |
| 20260505203048 | 80 | 213 | 1.7 | 13.0 | 0.00 | 0.00 | 0.00 | 52 | 1015.8 |
| 20260505201550 | 80 | 105 | 1.7 | 8.7 | 0.00 | 0.00 | 0.00 | 52 | 1015.8 |
| 20260505200034 | 80 | 298 | 4.3 | 10.4 | 0.00 | 0.00 | 0.00 | 50 | 1016.1 |
| 20260505194542 | 80 | 215 | 4.3 | 10.4 | 0.00 | 0.00 | 0.00 | 50 | 1016.4 |
| 20260505193058 | 79 | 290 | 2.6 | 9.6 | 0.00 | 0.00 | 0.00 | 52 | 1016.6 |
| 20260505191601 | 80 | 188 | 1.7 | 7.8 | 0.00 | 0.00 | 0.00 | 52 | 1016.9 |
| 20260505190040 | 79 | 208 | 2.6 | 8.7 | 0.00 | 0.00 | 0.00 | 52 | 1017.1 |
| 20260505184510 | 79 | 15 | 3.5 | 8.7 | 0.00 | 0.00 | 0.00 | 52 | 1017.3 |
| 20260505183018 | 78 | 252 | 4.3 | 8.7 | 0.00 | 0.00 | 0.00 | 52 | 1017.6 |
| 20260505181533 | 78 | 243 | 6.1 | 10.4 | 0.00 | 0.00 | 0.00 | 52 | 1017.6 |
| 20260505180042 | 78 | 78 | 4.3 | 8.7 | 0.00 | 0.00 | 0.00 | 55 | 1017.6 |
| 20260505174609 | 78 | 256 | 2.6 | 10.4 | 0.00 | 0.00 | 0.00 | 56 | 1017.7 |
| 20260505173103 | 77 | 200 | 2.6 | 8.7 | 0.00 | 0.00 | 0.00 | 58 | 1017.6 |
| 20260505171604 | 77 | 291 | 4.3 | 8.7 | 0.00 | 0.00 | 0.00 | 58 | 1017.8 |
| 20260505170035 | 76 | 161 | 3.5 | 8.7 | 0.00 | 0.00 | 0.00 | 60 | 1017.9 |
| 20260505164532 | 76 | 201 | 2.6 | 9.6 | 0.00 | 0.00 | 0.00 | 61 | 1018.1 |
| 20260505163035 | 75 | 133 | 2.6 | 9.6 | 0.00 | 0.00 | 0.00 | 62 | 1018.2 |
| 20260505161528 | 74 | 225 | 3.5 | 10.4 | 0.00 | 0.00 | 0.00 | 64 | 1018.3 |
| 20260505153052 | 72 | 229 | 6.1 | 9.6 | 0.00 | 0.00 | 0.00 | 66 | 1018.8 |
| 20260505151545 | 71 | 268 | 4.3 | 9.6 | 0.00 | 0.00 | 0.00 | 67 | 1018.9 |
| 20260505124554 | 62 | 210 | 2.6 | 7.8 | 0.00 | 0.00 | 0.00 | 79 | 1019.0 |
| 20260505123057 | 60 | 176 | 2.6 | 6.1 | 0.00 | 0.00 | 0.00 | 79 | 1018.9 |
| 20260505121523 | 59 | 292 | 1.7 | 5.2 | 0.00 | 0.00 | 0.00 | 79 | 1018.9 |
| 20260505120045 | 58 | 223 | 1.7 | 6.1 | 0.00 | 0.00 | 0.00 | 80 | 1018.9 |
| 20260505114525 | 57 | 217 | 0.0 | 2.6 | 0.00 | 0.00 | 0.00 | 80 | 1018.8 |
| 20260505113034 | 56 | 230 | 0.0 | 3.5 | 0.00 | 0.00 | 0.00 | 81 | 1018.7 |
| 20260505111551 | 54 | 193 | 0.0 | 1.7 | 0.00 | 0.00 | 0.00 | 81 | 1018.5 |
| 20260505101537 | 54 | 186 | 0.0 | 0.9 | 0.00 | 0.00 | 0.00 | 77 | 1017.7 |
| 20260505100052 | 54 | 186 | 0.0 | 2.6 | 0.00 | 0.00 | 0.00 | 77 | 1017.6 |
| 20260505094548 | 55 | 229 | 0.0 | 0.9 | 0.00 | 0.00 | 0.00 | 77 | 1017.5 |
| 20260505093045 | 55 | 229 | 0.0 | 2.6 | 0.00 | 0.00 | 0.00 | 77 | 1017.5 |
| 20260505091559 | 55 | 229 | 0.9 | 1.7 | 0.00 | 0.00 | 0.00 | 77 | 1017.4 |
| 20260505090033 | 56 | 230 | 0.0 | 1.7 | 0.00 | 0.00 | 0.00 | 75 | 1017.1 |
| 20260505084523 | 57 | 230 | 0.0 | 1.7 | 0.00 | 0.00 | 0.00 | 75 | 1017.1 |
| 20260505083047 | 57 | 235 | 0.0 | 3.5 | 0.00 | 0.00 | 0.00 | 76 | 1017.0 |
| 20260505081546 | 58 | 218 | 0.0 | 1.7 | 0.00 | 0.00 | 0.00 | 74 | 1016.8 |
| 20260505080042 | 58 | 246 | 0.0 | 4.3 | 0.00 | 0.00 | 0.00 | 74 | 1016.8 |
| 20260505074527 | 58 | 217 | 0.9 | 3.5 | 0.00 | 0.00 | 0.00 | 74 | 1016.7 |
| 20260505073043 | 58 | 205 | 0.9 | 4.3 | 0.00 | 0.00 | 0.00 | 73 | 1016.7 |
| 20260505071536 | 59 | 177 | 0.9 | 4.3 | 0.00 | 0.00 | 0.00 | 73 | 1016.7 |
| 20260505070053 | 59 | 225 | 0.9 | 6.1 | 0.00 | 0.00 | 0.00 | 72 | 1016.8 |
| 20260505064556 | 59 | 243 | 0.9 | 3.5 | 0.00 | 0.00 | 0.00 | 72 | 1016.8 |
| 20260505063101 | 60 | 221 | 0.9 | 4.3 | 0.00 | 0.00 | 0.00 | 72 | 1016.8 |
| 20260505061525 | 60 | 232 | 0.9 | 6.1 | 0.00 | 0.00 | 0.00 | 71 | 1016.8 |
| 20260505060139 | 60 | 236 | 0.9 | 7.0 | 0.00 | 0.00 | 0.00 | 71 | 1016.9 |
| 20260505054600 | 61 | 225 | 0.9 | 3.5 | 0.00 | 0.00 | 0.00 | 70 | 1017.0 |
| 20260505053034 | 61 | 227 | 1.7 | 6.1 | 0.00 | 0.00 | 0.00 | 70 | 1017.1 |
| 20260505051555 | 62 | 247 | 1.7 | 5.2 | 0.00 | 0.00 | 0.00 | 69 | 1017.2 |
| 20260505041558 | 63 | 247 | 1.7 | 8.7 | 0.00 | 0.00 | 0.00 | 68 | 1017.2 |
| 20260505040049 | 63 | 161 | 1.7 | 7.0 | 0.00 | 0.00 | 0.00 | 68 | 1017.3 |
| 20260505034523 | 63 | 250 | 3.5 | 10.4 | 0.00 | 0.00 | 0.00 | 68 | 1017.2 |
| 20260505033032 | 63 | 238 | 1.7 | 6.1 | 0.00 | 0.00 | 0.00 | 67 | 1017.2 |
| 20260505031503 | 64 | 223 | 2.6 | 7.8 | 0.00 | 0.00 | 0.00 | 67 | 1017.3 |
| 20260505030016 | 64 | 213 | 0.9 | 5.2 | 0.00 | 0.00 | 0.00 | 65 | 1017.3 |
| 20260505024519 | 65 | 210 | 4.3 | 7.0 | 0.00 | 0.00 | 0.00 | 65 | 1017.2 |
| 20260505023105 | 65 | 248 | 3.5 | 10.4 | 0.00 | 0.00 | 0.00 | 65 | 1017.0 |
| 20260505021601 | 66 | 161 | 3.5 | 9.6 | 0.00 | 0.00 | 0.00 | 63 | 1017.1 |
| 20260505020059 | 67 | 221 | 1.7 | 7.8 | 0.00 | 0.00 | 0.00 | 63 | 1017.0 |
| 20260505014549 | 67 | 303 | 1.7 | 9.6 | 0.00 | 0.00 | 0.00 | 61 | 1016.8 |
| 20260505013059 | 68 | 219 | 2.6 | 10.4 | 0.00 | 0.00 | 0.00 | 60 | 1016.6 |
| 20260505011535 | 68 | 159 | 0.9 | 7.0 | 0.00 | 0.00 | 0.00 | 57 | 1016.3 |
| 20260505010018 | 68 | 26 | 0.9 | 1.7 | 0.00 | 0.00 | 0.00 | 52 | 1016.0 |
| 20260505004517 | 69 | 216 | 0.0 | 1.7 | 0.00 | 0.00 | 0.00 | 49 | 1015.7 |